Location: Carri�res
(48.9069°N, 2.1792°E)
Time: 13:26:50
(UTC+00:00)

USA 267 - Pass Details

Date: 17 January 2021
Orbit: 1102 x 1106 km, 123.0° (Epoch: 22 February)

Event Time Altitude Azimuth Distance (km) Brightness Sun altitude
Exits shadow 18:29:54 31° 98° (E) 1,829 3.9 -19.9°
Maximum altitude 18:31:48 37° 131° (SE) 1,650 3.9 -20.2°
Drops below altitude 10° 18:37:45 10° 197° (SSW) 2,954 5.8 -21.2°
Sets 18:40:27 0° 206° (SSW) 3,909 6.6 -21.6°
